owner,sensor,date,latitude,longitude,vertical_datum,wind_speed,wind_to_direction,wind_speed_of_gust,qcFlag 
WAVCIS,ioos:station:WAVCIS:CSI06:1,2009-06-01T00:00:00Z,28.8667,-90.4833,10.0,3.986,105.0,,'11111222,11111222,99999999' 
WAVCIS,ioos:station:WAVCIS:CSI06:1,2009-06-01T01:00:00Z,28.8667,-90.4833,10.0,4.491,111.0,,'11111222,11111222,99999999' 
WAVCIS,ioos:station:WAVCIS:CSI06:1,2009-06-01T02:00:00Z,28.8667,-90.4833,10.0,4.819,108.0,,'11111222,11111222,99999999' 
WAVCIS,ioos:station:WAVCIS:CSI06:1,2009-06-01T03:00:00Z,28.8667,-90.4833,10.0,4.936,115.0,,'11111222,11111222,99999999' 
WAVCIS,ioos:station:WAVCIS:CSI06:1,2009-06-01T04:00:00Z,28.8667,-90.4833,10.0,5.052,124.0,,'11111222,11111222,99999999' 
WAVCIS,ioos:station:WAVCIS:CSI06:1,2009-06-01T05:00:00Z,28.8667,-90.4833,10.0,4.099,127.0,,'11111222,11111222,99999999' 
WAVCIS,ioos:station:WAVCIS:CSI06:1,2009-06-01T06:00:00Z,28.8667,-90.4833,10.0,4.545,141.0,,'11111222,11111222,99999999' 
WAVCIS,ioos:station:WAVCIS:CSI06:1,2009-06-01T07:00:00Z,28.8667,-90.4833,10.0,4.032,129.0,,'11111222,11111222,99999999' 
WAVCIS,ioos:station:WAVCIS:CSI06:1,2009-06-01T08:00:00Z,28.8667,-90.4833,10.0,2.958,134.0,,'11111222,11111222,99999999' 
WAVCIS,ioos:station:WAVCIS:CSI06:1,2009-06-01T09:00:00Z,28.8667,-90.4833,10.0,3.765,133.0,,'11111222,11111222,99999999' 
WAVCIS,ioos:station:WAVCIS:CSI06:1,2009-06-01T10:00:00Z,28.8667,-90.4833,10.0,4.137,138.0,,'11111222,11111222,99999999' 
WAVCIS,ioos:station:WAVCIS:CSI06:1,2009-06-01T11:00:00Z,28.8667,-90.4833,10.0,3.93,137.0,,'11111222,11111222,99999999' 
WAVCIS,ioos:station:WAVCIS:CSI06:1,2009-06-01T12:00:00Z,28.8667,-90.4833,10.0,4.217,145.0,,'11111222,11111222,99999999' 
WAVCIS,ioos:station:WAVCIS:CSI06:1,2009-06-01T13:00:00Z,28.8667,-90.4833,10.0,3.37,123.0,,'11111222,11111222,99999999' 
WAVCIS,ioos:station:WAVCIS:CSI06:1,2009-06-01T14:00:00Z,28.8667,-90.4833,10.0,4.314,112.0,,'11111222,11111222,99999999' 
WAVCIS,ioos:station:WAVCIS:CSI06:1,2009-06-01T15:00:00Z,28.8667,-90.4833,10.0,4.783,122.0,,'11111222,11111222,99999999' 
WAVCIS,ioos:station:WAVCIS:CSI06:1,2009-06-01T16:00:00Z,28.8667,-90.4833,10.0,4.272,116.0,,'11111222,11111222,99999999' 
WAVCIS,ioos:station:WAVCIS:CSI06:1,2009-06-01T17:00:00Z,28.8667,-90.4833,10.0,4.802,107.0,,'11111222,11111222,99999999' 
WAVCIS,ioos:station:WAVCIS:CSI06:1,2009-06-01T18:00:00Z,28.8667,-90.4833,10.0,6.202,118.0,,'11111222,11111222,99999999' 
WAVCIS,ioos:station:WAVCIS:CSI06:1,2009-06-01T19:00:00Z,28.8667,-90.4833,10.0,5.608,121.0,,'11111222,11111222,99999999' 
WAVCIS,ioos:station:WAVCIS:CSI06:1,2009-06-01T20:00:00Z,28.8667,-90.4833,10.0,6.297,123.0,,'11111222,11111222,99999999' 
WAVCIS,ioos:station:WAVCIS:CSI06:1,2009-06-01T21:00:00Z,28.8667,-90.4833,10.0,5.91,118.0,,'11111222,11111222,99999999' 
WAVCIS,ioos:station:WAVCIS:CSI06:1,2009-06-01T22:00:00Z,28.8667,-90.4833,10.0,5.428,123.0,,'11111222,11111222,99999999' 
WAVCIS,ioos:station:WAVCIS:CSI06:1,2009-06-01T23:00:00Z,28.8667,-90.4833,10.0,6.043,128.0,,'11111222,11111222,99999999' 
WAVCIS,ioos:station:WAVCIS:CSI06:1,2009-06-02T00:00:00Z,28.8667,-90.4833,10.0,6.339,128.0,,'11111222,11111222,99999999' 
WAVCIS,ioos:station:WAVCIS:CSI06:1,2009-06-02T01:00:00Z,28.8667,-90.4833,10.0,6.277,122.0,,'11111222,11111222,99999999' 
WAVCIS,ioos:station:WAVCIS:CSI06:1,2009-06-02T02:00:00Z,28.8667,-90.4833,10.0,6.782,124.0,,'11111222,11111222,99999999' 
WAVCIS,ioos:station:WAVCIS:CSI06:1,2009-06-02T03:00:00Z,28.8667,-90.4833,10.0,7.39,117.0,,'11111222,11111222,99999999' 
WAVCIS,ioos:station:WAVCIS:CSI06:1,2009-06-02T04:00:00Z,28.8667,-90.4833,10.0,7.47,116.0,,'11111222,11111222,99999999' 
WAVCIS,ioos:station:WAVCIS:CSI06:1,2009-06-02T05:00:00Z,28.8667,-90.4833,10.0,7.54,118.0,,'11111222,11111222,99999999' 
WAVCIS,ioos:station:WAVCIS:CSI06:1,2009-06-02T06:00:00Z,28.8667,-90.4833,10.0,7.92,127.0,,'11111222,11111222,99999999' 
WAVCIS,ioos:station:WAVCIS:CSI06:1,2009-06-02T07:00:00Z,28.8667,-90.4833,10.0,8.49,145.0,,'11111222,11111222,99999999' 
WAVCIS,ioos:station:WAVCIS:CSI06:1,2009-06-02T08:00:00Z,28.8667,-90.4833,10.0,7.99,145.0,,'11111222,11111222,99999999' 
WAVCIS,ioos:station:WAVCIS:CSI06:1,2009-06-02T09:00:00Z,28.8667,-90.4833,10.0,7.93,154.0,,'11111222,11111222,99999999' 
WAVCIS,ioos:station:WAVCIS:CSI06:1,2009-06-02T10:00:00Z,28.8667,-90.4833,10.0,6.737,147.0,,'11111222,11111222,99999999' 
WAVCIS,ioos:station:WAVCIS:CSI06:1,2009-06-02T11:00:00Z,28.8667,-90.4833,10.0,5.212,132.0,,'11111222,11111222,99999999' 
WAVCIS,ioos:station:WAVCIS:CSI06:1,2009-06-02T12:00:00Z,28.8667,-90.4833,10.0,5.523,130.0,,'11111222,11111222,99999999' 
WAVCIS,ioos:station:WAVCIS:CSI06:1,2009-06-02T13:00:00Z,28.8667,-90.4833,10.0,6.181,127.0,,'11111222,11111222,99999999' 
WAVCIS,ioos:station:WAVCIS:CSI06:1,2009-06-02T14:00:00Z,28.8667,-90.4833,10.0,5.357,124.0,,'11111222,11111222,99999999' 
WAVCIS,ioos:station:WAVCIS:CSI06:1,2009-06-02T15:00:00Z,28.8667,-90.4833,10.0,7.32,124.0,,'11111222,11111222,99999999' 
WAVCIS,ioos:station:WAVCIS:CSI06:1,2009-06-02T16:00:00Z,28.8667,-90.4833,10.0,6.389,126.0,,'11111222,11111222,99999999' 
WAVCIS,ioos:station:WAVCIS:CSI06:1,2009-06-02T17:00:00Z,28.8667,-90.4833,10.0,7.04,121.0,,'11111222,11111222,99999999' 
WAVCIS,ioos:station:WAVCIS:CSI06:1,2009-06-02T18:00:00Z,28.8667,-90.4833,10.0,13.81,130.0,,'11111222,11111222,99999999' 
WAVCIS,ioos:station:WAVCIS:CSI06:1,2009-06-02T19:00:00Z,28.8667,-90.4833,10.0,4.753,17.0,,'11111222,11111222,99999999' 
WAVCIS,ioos:station:WAVCIS:CSI06:1,2009-06-02T20:00:00Z,28.8667,-90.4833,10.0,5.159,87.0,,'11111222,11111222,99999999' 
WAVCIS,ioos:station:WAVCIS:CSI06:1,2009-06-02T21:00:00Z,28.8667,-90.4833,10.0,8.11,71.0,,'11111222,11111222,99999999' 
WAVCIS,ioos:station:WAVCIS:CSI06:1,2009-06-02T22:00:00Z,28.8667,-90.4833,10.0,4.629,88.0,,'11111222,11111222,99999999' 
WAVCIS,ioos:station:WAVCIS:CSI06:1,2009-06-02T23:00:00Z,28.8667,-90.4833,10.0,7.78,326.0,,'11111222,11111222,99999999' 
WAVCIS,ioos:station:WAVCIS:CSI06:1,2009-06-03T00:00:00Z,28.8667,-90.4833,10.0,3.169,293.0,,'11111222,11111222,99999999' 
WAVCIS,ioos:station:WAVCIS:CSI06:1,2009-06-03T01:00:00Z,28.8667,-90.4833,10.0,1.467,62.0,,'11111222,11111222,99999999' 
WAVCIS,ioos:station:WAVCIS:CSI06:1,2009-06-03T02:00:00Z,28.8667,-90.4833,10.0,6.915,101.0,,'11111222,11111222,99999999' 
WAVCIS,ioos:station:WAVCIS:CSI06:1,2009-06-03T03:00:00Z,28.8667,-90.4833,10.0,13.84,91.0,,'11111222,11111222,99999999' 
WAVCIS,ioos:station:WAVCIS:CSI06:1,2009-06-03T04:00:00Z,28.8667,-90.4833,10.0,11.14,89.0,,'11111222,11111222,99999999' 
WAVCIS,ioos:station:WAVCIS:CSI06:1,2009-06-03T05:00:00Z,28.8667,-90.4833,10.0,7.55,78.0,,'11111222,11111222,99999999' 
WAVCIS,ioos:station:WAVCIS:CSI06:1,2009-06-03T06:00:00Z,28.8667,-90.4833,10.0,5.088,129.0,,'11111222,11111222,99999999' 
WAVCIS,ioos:station:WAVCIS:CSI06:1,2009-06-03T07:00:00Z,28.8667,-90.4833,10.0,1.672,174.0,,'11111222,11111222,99999999' 
WAVCIS,ioos:station:WAVCIS:CSI06:1,2009-06-03T08:00:00Z,28.8667,-90.4833,10.0,3.133,213.0,,'11111222,11111222,99999999' 
WAVCIS,ioos:station:WAVCIS:CSI06:1,2009-06-03T09:00:00Z,28.8667,-90.4833,10.0,4.201,202.0,,'11111222,11111222,99999999' 
WAVCIS,ioos:station:WAVCIS:CSI06:1,2009-06-03T10:00:00Z,28.8667,-90.4833,10.0,5.154,237.0,,'11111222,11111222,99999999' 
WAVCIS,ioos:station:WAVCIS:CSI06:1,2009-06-03T11:00:00Z,28.8667,-90.4833,10.0,3.381,217.0,,'11111222,11111222,99999999' 
WAVCIS,ioos:station:WAVCIS:CSI06:1,2009-06-03T12:00:00Z,28.8667,-90.4833,10.0,3.969,255.0,,'11111222,11111222,99999999' 
WAVCIS,ioos:station:WAVCIS:CSI06:1,2009-06-03T13:00:00Z,28.8667,-90.4833,10.0,4.838,251.0,,'11111222,11111222,99999999' 
WAVCIS,ioos:station:WAVCIS:CSI06:1,2009-06-03T14:00:00Z,28.8667,-90.4833,10.0,3.725,263.0,,'11111222,11111222,99999999' 
WAVCIS,ioos:station:WAVCIS:CSI06:1,2009-06-03T15:00:00Z,28.8667,-90.4833,10.0,5.662,274.0,,'11111222,11111222,99999999' 
WAVCIS,ioos:station:WAVCIS:CSI06:1,2009-06-03T16:00:00Z,28.8667,-90.4833,10.0,4.435,279.0,,'11111222,11111222,99999999' 
WAVCIS,ioos:station:WAVCIS:CSI06:1,2009-06-03T17:00:00Z,28.8667,-90.4833,10.0,2.501,262.0,,'11111222,11111222,99999999' 
WAVCIS,ioos:station:WAVCIS:CSI06:1,2009-06-03T18:00:00Z,28.8667,-90.4833,10.0,1.479,75.0,,'11111222,11111222,99999999' 
WAVCIS,ioos:station:WAVCIS:CSI06:1,2009-06-03T19:00:00Z,28.8667,-90.4833,10.0,1.679,61.0,,'11111222,11111222,99999999' 
WAVCIS,ioos:station:WAVCIS:CSI06:1,2009-06-03T20:00:00Z,28.8667,-90.4833,10.0,2.472,105.0,,'11111222,11111222,99999999' 
WAVCIS,ioos:station:WAVCIS:CSI06:1,2009-06-03T21:00:00Z,28.8667,-90.4833,10.0,4.297,174.0,,'11111222,11111222,99999999' 
WAVCIS,ioos:station:WAVCIS:CSI06:1,2009-06-03T22:00:00Z,28.8667,-90.4833,10.0,3.729,187.0,,'11111222,11111222,99999999' 
WAVCIS,ioos:station:WAVCIS:CSI06:1,2009-06-03T23:00:00Z,28.8667,-90.4833,10.0,2.317,174.0,,'11111222,11111222,99999999' 
WAVCIS,ioos:station:WAVCIS:CSI06:1,2009-06-04T00:00:00Z,28.8667,-90.4833,10.0,2.67,242.0,,'11111222,11111222,99999999' 
WAVCIS,ioos:station:WAVCIS:CSI06:1,2009-06-04T01:00:00Z,28.8667,-90.4833,10.0,4.124,265.0,,'11111222,11111222,99999999' 
WAVCIS,ioos:station:WAVCIS:CSI06:1,2009-06-04T02:00:00Z,28.8667,-90.4833,10.0,4.327,278.0,,'11111222,11111222,99999999' 
WAVCIS,ioos:station:WAVCIS:CSI06:1,2009-06-04T03:00:00Z,28.8667,-90.4833,10.0,5.065,273.0,,'11111222,11111222,99999999' 
WAVCIS,ioos:station:WAVCIS:CSI06:1,2009-06-04T04:00:00Z,28.8667,-90.4833,10.0,2.834,267.0,,'11111222,11111222,99999999' 
WAVCIS,ioos:station:WAVCIS:CSI06:1,2009-06-04T05:00:00Z,28.8667,-90.4833,10.0,3.081,256.0,,'11111222,11111222,99999999' 
WAVCIS,ioos:station:WAVCIS:CSI06:1,2009-06-04T06:00:00Z,28.8667,-90.4833,10.0,3.347,229.0,,'11111222,11111222,99999999' 
WAVCIS,ioos:station:WAVCIS:CSI06:1,2009-06-04T07:00:00Z,28.8667,-90.4833,10.0,4.909,233.0,,'11111222,11111222,99999999' 
WAVCIS,ioos:station:WAVCIS:CSI06:1,2009-06-04T08:00:00Z,28.8667,-90.4833,10.0,6.146,231.0,,'11111222,11111222,99999999' 
WAVCIS,ioos:station:WAVCIS:CSI06:1,2009-06-04T09:00:00Z,28.8667,-90.4833,10.0,6.963,230.0,,'11111222,11111222,99999999' 
WAVCIS,ioos:station:WAVCIS:CSI06:1,2009-06-04T10:00:00Z,28.8667,-90.4833,10.0,6.209,227.0,,'11111222,11111222,99999999' 
WAVCIS,ioos:station:WAVCIS:CSI06:1,2009-06-04T11:00:00Z,28.8667,-90.4833,10.0,6.906,243.0,,'11111222,11111222,99999999' 
WAVCIS,ioos:station:WAVCIS:CSI06:1,2009-06-04T12:00:00Z,28.8667,-90.4833,10.0,7.33,250.0,,'11111222,11111222,99999999' 
WAVCIS,ioos:station:WAVCIS:CSI06:1,2009-06-04T13:00:00Z,28.8667,-90.4833,10.0,8.16,281.0,,'11111222,11111222,99999999' 
WAVCIS,ioos:station:WAVCIS:CSI06:1,2009-06-04T14:00:00Z,28.8667,-90.4833,10.0,10.32,259.0,,'11111222,11111222,99999999' 
WAVCIS,ioos:station:WAVCIS:CSI06:1,2009-06-04T15:00:00Z,28.8667,-90.4833,10.0,8.94,258.0,,'11111222,11111222,99999999' 
WAVCIS,ioos:station:WAVCIS:CSI06:1,2009-06-04T16:00:00Z,28.8667,-90.4833,10.0,7.31,232.0,,'11111222,11111222,99999999' 
WAVCIS,ioos:station:WAVCIS:CSI06:1,2009-06-04T17:00:00Z,28.8667,-90.4833,10.0,10.54,235.0,,'11111222,11111222,99999999' 
WAVCIS,ioos:station:WAVCIS:CSI06:1,2009-06-04T18:00:00Z,28.8667,-90.4833,10.0,9.14,235.0,,'11111222,11111222,99999999' 
WAVCIS,ioos:station:WAVCIS:CSI06:1,2009-06-04T19:00:00Z,28.8667,-90.4833,10.0,8.68,250.0,,'11111222,11111222,99999999' 
WAVCIS,ioos:station:WAVCIS:CSI06:1,2009-06-04T20:00:00Z,28.8667,-90.4833,10.0,9.55,254.0,,'11111222,11111222,99999999' 
WAVCIS,ioos:station:WAVCIS:CSI06:1,2009-06-04T21:00:00Z,28.8667,-90.4833,10.0,8.1,253.0,,'11111222,11111222,99999999' 
WAVCIS,ioos:station:WAVCIS:CSI06:1,2009-06-04T22:00:00Z,28.8667,-90.4833,10.0,7.4,248.0,,'11111222,11111222,99999999' 
WAVCIS,ioos:station:WAVCIS:CSI06:1,2009-06-04T23:00:00Z,28.8667,-90.4833,10.0,6.974,251.0,,'11111222,11111222,99999999' 
WAVCIS,ioos:station:WAVCIS:CSI06:1,2009-06-05T00:00:00Z,28.8667,-90.4833,10.0,6.988,265.0,,'11111222,11111222,99999999' 
WAVCIS,ioos:station:WAVCIS:CSI06:1,2009-06-05T01:00:00Z,28.8667,-90.4833,10.0,8.27,262.0,,'11111222,11111222,99999999' 
WAVCIS,ioos:station:WAVCIS:CSI06:1,2009-06-05T02:00:00Z,28.8667,-90.4833,10.0,8.23,275.0,,'11111222,11111222,99999999' 
WAVCIS,ioos:station:WAVCIS:CSI06:1,2009-06-05T03:00:00Z,28.8667,-90.4833,10.0,8.08,286.0,,'11111222,11111222,99999999' 
WAVCIS,ioos:station:WAVCIS:CSI06:1,2009-06-05T04:00:00Z,28.8667,-90.4833,10.0,8.02,311.0,,'11111222,11111222,99999999' 
WAVCIS,ioos:station:WAVCIS:CSI06:1,2009-06-05T05:00:00Z,28.8667,-90.4833,10.0,7.77,324.0,,'11111222,11111222,99999999' 
WAVCIS,ioos:station:WAVCIS:CSI06:1,2009-06-05T06:00:00Z,28.8667,-90.4833,10.0,5.316,1.0,,'11111222,11111222,99999999' 
WAVCIS,ioos:station:WAVCIS:CSI06:1,2009-06-05T07:00:00Z,28.8667,-90.4833,10.0,5.228,5.0,,'11111222,11111222,99999999' 
WAVCIS,ioos:station:WAVCIS:CSI06:1,2009-06-05T08:00:00Z,28.8667,-90.4833,10.0,5.215,3.0,,'11111222,11111222,99999999' 
WAVCIS,ioos:station:WAVCIS:CSI06:1,2009-06-05T09:00:00Z,28.8667,-90.4833,10.0,6.171,6.0,,'11111222,11111222,99999999' 
WAVCIS,ioos:station:WAVCIS:CSI06:1,2009-06-05T10:00:00Z,28.8667,-90.4833,10.0,5.06,356.0,,'11111222,11111222,99999999' 
WAVCIS,ioos:station:WAVCIS:CSI06:1,2009-06-05T11:00:00Z,28.8667,-90.4833,10.0,6.623,345.0,,'11111222,11111222,99999999' 
WAVCIS,ioos:station:WAVCIS:CSI06:1,2009-06-05T12:00:00Z,28.8667,-90.4833,10.0,8.84,11.0,,'11111222,11111222,99999999' 
WAVCIS,ioos:station:WAVCIS:CSI06:1,2009-06-05T13:00:00Z,28.8667,-90.4833,10.0,6.717,7.0,,'11111222,11111222,99999999' 
WAVCIS,ioos:station:WAVCIS:CSI06:1,2009-06-05T14:00:00Z,28.8667,-90.4833,10.0,4.909,5.0,,'11111222,11111222,99999999' 
WAVCIS,ioos:station:WAVCIS:CSI06:1,2009-06-05T15:00:00Z,28.8667,-90.4833,10.0,4.618,4.0,,'11111222,11111222,99999999' 
WAVCIS,ioos:station:WAVCIS:CSI06:1,2009-06-05T16:00:00Z,28.8667,-90.4833,10.0,4.823,7.0,,'11111222,11111222,99999999' 
WAVCIS,ioos:station:WAVCIS:CSI06:1,2009-06-05T17:00:00Z,28.8667,-90.4833,10.0,5.609,337.0,,'11111222,11111222,99999999' 
WAVCIS,ioos:station:WAVCIS:CSI06:1,2009-06-05T18:00:00Z,28.8667,-90.4833,10.0,4.489,349.0,,'11111222,11111222,99999999' 
WAVCIS,ioos:station:WAVCIS:CSI06:1,2009-06-05T19:00:00Z,28.8667,-90.4833,10.0,4.236,347.0,,'11111222,11111222,99999999' 
WAVCIS,ioos:station:WAVCIS:CSI06:1,2009-06-05T20:00:00Z,28.8667,-90.4833,10.0,4.573,2.0,,'11111222,11111222,99999999' 
WAVCIS,ioos:station:WAVCIS:CSI06:1,2009-06-05T21:00:00Z,28.8667,-90.4833,10.0,4.056,9.0,,'11111222,11111222,99999999' 
WAVCIS,ioos:station:WAVCIS:CSI06:1,2009-06-05T22:00:00Z,28.8667,-90.4833,10.0,3.322,335.0,,'11111222,11111222,99999999' 
WAVCIS,ioos:station:WAVCIS:CSI06:1,2009-06-05T23:00:00Z,28.8667,-90.4833,10.0,2.341,329.0,,'11111222,11111222,99999999' 
WAVCIS,ioos:station:WAVCIS:CSI06:1,2009-06-06T00:00:00Z,28.8667,-90.4833,10.0,2.384,320.0,,'11111222,11111222,99999999' 
WAVCIS,ioos:station:WAVCIS:CSI06:1,2009-06-06T01:00:00Z,28.8667,-90.4833,10.0,1.321,299.0,,'11111222,11111222,99999999' 
WAVCIS,ioos:station:WAVCIS:CSI06:1,2009-06-06T02:00:00Z,28.8667,-90.4833,10.0,2.119,30.0,,'11111222,11111222,99999999' 
WAVCIS,ioos:station:WAVCIS:CSI06:1,2009-06-06T03:00:00Z,28.8667,-90.4833,10.0,3.98,25.0,,'11111222,11111222,99999999' 
WAVCIS,ioos:station:WAVCIS:CSI06:1,2009-06-06T04:00:00Z,28.8667,-90.4833,10.0,6.656,29.0,,'11111222,11111222,99999999' 
WAVCIS,ioos:station:WAVCIS:CSI06:1,2009-06-06T05:00:00Z,28.8667,-90.4833,10.0,6.071,38.0,,'11111222,11111222,99999999' 
WAVCIS,ioos:station:WAVCIS:CSI06:1,2009-06-06T06:00:00Z,28.8667,-90.4833,10.0,7.91,42.0,,'11111222,11111222,99999999' 
WAVCIS,ioos:station:WAVCIS:CSI06:1,2009-06-06T07:00:00Z,28.8667,-90.4833,10.0,5.612,41.0,,'11111222,11111222,99999999' 
WAVCIS,ioos:station:WAVCIS:CSI06:1,2009-06-06T08:00:00Z,28.8667,-90.4833,10.0,6.029,42.0,,'11111222,11111222,99999999' 
WAVCIS,ioos:station:WAVCIS:CSI06:1,2009-06-06T09:00:00Z,28.8667,-90.4833,10.0,6.547,50.0,,'11111222,11111222,99999999' 
WAVCIS,ioos:station:WAVCIS:CSI06:1,2009-06-06T10:00:00Z,28.8667,-90.4833,10.0,7.27,47.0,,'11111222,11111222,99999999' 
WAVCIS,ioos:station:WAVCIS:CSI06:1,2009-06-06T11:00:00Z,28.8667,-90.4833,10.0,6.074,55.0,,'11111222,11111222,99999999' 
WAVCIS,ioos:station:WAVCIS:CSI06:1,2009-06-06T12:00:00Z,28.8667,-90.4833,10.0,4.759,60.0,,'11111222,11111222,99999999' 
WAVCIS,ioos:station:WAVCIS:CSI06:1,2009-06-06T13:00:00Z,28.8667,-90.4833,10.0,4.362,54.0,,'11111222,11111222,99999999' 
WAVCIS,ioos:station:WAVCIS:CSI06:1,2009-06-06T14:00:00Z,28.8667,-90.4833,10.0,2.828,41.0,,'11111222,11111222,99999999' 
WAVCIS,ioos:station:WAVCIS:CSI06:1,2009-06-06T15:00:00Z,28.8667,-90.4833,10.0,2.457,38.0,,'11111222,11111222,99999999' 
WAVCIS,ioos:station:WAVCIS:CSI06:1,2009-06-06T16:00:00Z,28.8667,-90.4833,10.0,2.889,47.0,,'11111222,11111222,99999999' 
WAVCIS,ioos:station:WAVCIS:CSI06:1,2009-06-06T17:00:00Z,28.8667,-90.4833,10.0,1.574,26.0,,'11111222,11111222,99999999' 
WAVCIS,ioos:station:WAVCIS:CSI06:1,2009-06-06T18:00:00Z,28.8667,-90.4833,10.0,1.647,51.0,,'11111222,11111222,99999999' 
WAVCIS,ioos:station:WAVCIS:CSI06:1,2009-06-06T19:00:00Z,28.8667,-90.4833,10.0,1.422,52.0,,'11111222,11111222,99999999' 
WAVCIS,ioos:station:WAVCIS:CSI06:1,2009-06-06T20:00:00Z,28.8667,-90.4833,10.0,1.884,60.0,,'11111222,11111222,99999999' 
WAVCIS,ioos:station:WAVCIS:CSI06:1,2009-06-06T21:00:00Z,28.8667,-90.4833,10.0,1.354,106.0,,'11111222,11111222,99999999' 
WAVCIS,ioos:station:WAVCIS:CSI06:1,2009-06-06T22:00:00Z,28.8667,-90.4833,10.0,1.401,125.0,,'11111222,11111222,99999999' 
WAVCIS,ioos:station:WAVCIS:CSI06:1,2009-06-06T23:00:00Z,28.8667,-90.4833,10.0,2.123,161.0,,'11111222,11111222,99999999' 
WAVCIS,ioos:station:WAVCIS:CSI06:1,2009-06-07T00:00:00Z,28.8667,-90.4833,10.0,2.912,160.0,,'11111222,11111222,99999999' 
WAVCIS,ioos:station:WAVCIS:CSI06:1,2009-06-07T01:00:00Z,28.8667,-90.4833,10.0,2.238,187.0,,'11111222,11111222,99999999' 
WAVCIS,ioos:station:WAVCIS:CSI06:1,2009-06-07T02:00:00Z,28.8667,-90.4833,10.0,1.087,162.0,,'11111222,11111222,99999999' 
WAVCIS,ioos:station:WAVCIS:CSI06:1,2009-06-07T03:00:00Z,28.8667,-90.4833,10.0,2.525,121.0,,'11111222,11111222,99999999' 
WAVCIS,ioos:station:WAVCIS:CSI06:1,2009-06-07T04:00:00Z,28.8667,-90.4833,10.0,4.374,123.0,,'11111222,11111222,99999999' 
WAVCIS,ioos:station:WAVCIS:CSI06:1,2009-06-07T05:00:00Z,28.8667,-90.4833,10.0,4.419,124.0,,'11111222,11111222,99999999' 
WAVCIS,ioos:station:WAVCIS:CSI06:1,2009-06-07T06:00:00Z,28.8667,-90.4833,10.0,4.469,137.0,,'11111222,11111222,99999999' 
WAVCIS,ioos:station:WAVCIS:CSI06:1,2009-06-07T07:00:00Z,28.8667,-90.4833,10.0,3.309,158.0,,'11111222,11111222,99999999' 
WAVCIS,ioos:station:WAVCIS:CSI06:1,2009-06-07T08:00:00Z,28.8667,-90.4833,10.0,3.629,170.0,,'11111222,11111222,99999999' 
WAVCIS,ioos:station:WAVCIS:CSI06:1,2009-06-07T09:00:00Z,28.8667,-90.4833,10.0,5.251,156.0,,'11111222,11111222,99999999' 
WAVCIS,ioos:station:WAVCIS:CSI06:1,2009-06-07T10:00:00Z,28.8667,-90.4833,10.0,5.636,138.0,,'11111222,11111222,99999999' 
WAVCIS,ioos:station:WAVCIS:CSI06:1,2009-06-07T11:00:00Z,28.8667,-90.4833,10.0,4.674,141.0,,'11111222,11111222,99999999' 
WAVCIS,ioos:station:WAVCIS:CSI06:1,2009-06-07T12:00:00Z,28.8667,-90.4833,10.0,4.795,135.0,,'11111222,11111222,99999999' 
WAVCIS,ioos:station:WAVCIS:CSI06:1,2009-06-07T13:00:00Z,28.8667,-90.4833,10.0,4.538,145.0,,'11111222,11111222,99999999' 
WAVCIS,ioos:station:WAVCIS:CSI06:1,2009-06-07T14:00:00Z,28.8667,-90.4833,10.0,4.921,141.0,,'11111222,11111222,99999999' 
WAVCIS,ioos:station:WAVCIS:CSI06:1,2009-06-07T15:00:00Z,28.8667,-90.4833,10.0,4.834,135.0,,'11111222,11111222,99999999' 
WAVCIS,ioos:station:WAVCIS:CSI06:1,2009-06-07T16:00:00Z,28.8667,-90.4833,10.0,4.553,132.0,,'11111222,11111222,99999999' 
WAVCIS,ioos:station:WAVCIS:CSI06:1,2009-06-07T17:00:00Z,28.8667,-90.4833,10.0,4.986,129.0,,'11111222,11111222,99999999' 
WAVCIS,ioos:station:WAVCIS:CSI06:1,2009-06-07T18:00:00Z,28.8667,-90.4833,10.0,4.512,135.0,,'11111222,11111222,99999999' 
WAVCIS,ioos:station:WAVCIS:CSI06:1,2009-06-07T19:00:00Z,28.8667,-90.4833,10.0,4.728,135.0,,'11111222,11111222,99999999' 
WAVCIS,ioos:station:WAVCIS:CSI06:1,2009-06-07T20:00:00Z,28.8667,-90.4833,10.0,3.791,137.0,,'11111222,11111222,99999999' 
WAVCIS,ioos:station:WAVCIS:CSI06:1,2009-06-07T21:00:00Z,28.8667,-90.4833,10.0,4.173,133.0,,'11111222,11111222,99999999' 
WAVCIS,ioos:station:WAVCIS:CSI06:1,2009-06-07T22:00:00Z,28.8667,-90.4833,10.0,2.911,138.0,,'11111222,11111222,99999999' 
WAVCIS,ioos:station:WAVCIS:CSI06:1,2009-06-07T23:00:00Z,28.8667,-90.4833,10.0,3.398,122.0,,'11111222,11111222,99999999' 
WAVCIS,ioos:station:WAVCIS:CSI06:1,2009-06-08T00:00:00Z,28.8667,-90.4833,10.0,3.194,126.0,,'11111222,11111222,99999999' 
WAVCIS,ioos:station:WAVCIS:CSI06:1,2009-06-08T01:00:00Z,28.8667,-90.4833,10.0,4.733,131.0,,'11111222,11111222,99999999' 
WAVCIS,ioos:station:WAVCIS:CSI06:1,2009-06-08T02:00:00Z,28.8667,-90.4833,10.0,5.144,128.0,,'11111222,11111222,99999999' 
WAVCIS,ioos:station:WAVCIS:CSI06:1,2009-06-08T03:00:00Z,28.8667,-90.4833,10.0,5.365,123.0,,'11111222,11111222,99999999' 
WAVCIS,ioos:station:WAVCIS:CSI06:1,2009-06-08T04:00:00Z,28.8667,-90.4833,10.0,5.232,119.0,,'11111222,11111222,99999999' 
WAVCIS,ioos:station:WAVCIS:CSI06:1,2009-06-08T05:00:00Z,28.8667,-90.4833,10.0,5.249,137.0,,'11111222,11111222,99999999' 
WAVCIS,ioos:station:WAVCIS:CSI06:1,2009-06-08T06:00:00Z,28.8667,-90.4833,10.0,6.325,132.0,,'11111222,11111222,99999999' 
WAVCIS,ioos:station:WAVCIS:CSI06:1,2009-06-08T07:00:00Z,28.8667,-90.4833,10.0,6.532,140.0,,'11111222,11111222,99999999' 
WAVCIS,ioos:station:WAVCIS:CSI06:1,2009-06-08T08:00:00Z,28.8667,-90.4833,10.0,6.09,135.0,,'11111222,11111222,99999999' 
WAVCIS,ioos:station:WAVCIS:CSI06:1,2009-06-08T09:00:00Z,28.8667,-90.4833,10.0,6.276,143.0,,'11111222,11111222,99999999' 
WAVCIS,ioos:station:WAVCIS:CSI06:1,2009-06-08T10:00:00Z,28.8667,-90.4833,10.0,6.174,148.0,,'11111222,11111222,99999999' 
WAVCIS,ioos:station:WAVCIS:CSI06:1,2009-06-08T11:00:00Z,28.8667,-90.4833,10.0,6.585,148.0,,'11111222,11111222,99999999' 
WAVCIS,ioos:station:WAVCIS:CSI06:1,2009-06-08T12:00:00Z,28.8667,-90.4833,10.0,5.903,149.0,,'11111222,11111222,99999999' 
WAVCIS,ioos:station:WAVCIS:CSI06:1,2009-06-08T13:00:00Z,28.8667,-90.4833,10.0,5.851,152.0,,'11111222,11111222,99999999' 
WAVCIS,ioos:station:WAVCIS:CSI06:1,2009-06-08T14:00:00Z,28.8667,-90.4833,10.0,5.353,147.0,,'11111222,11111222,99999999' 
WAVCIS,ioos:station:WAVCIS:CSI06:1,2009-06-08T15:00:00Z,28.8667,-90.4833,10.0,4.786,145.0,,'11111222,11111222,99999999' 
WAVCIS,ioos:station:WAVCIS:CSI06:1,2009-06-08T16:00:00Z,28.8667,-90.4833,10.0,4.591,136.0,,'11111222,11111222,99999999' 
WAVCIS,ioos:station:WAVCIS:CSI06:1,2009-06-08T17:00:00Z,28.8667,-90.4833,10.0,5.428,138.0,,'11111222,11111222,99999999' 
WAVCIS,ioos:station:WAVCIS:CSI06:1,2009-06-08T18:00:00Z,28.8667,-90.4833,10.0,5.832,145.0,,'11111222,11111222,99999999' 
WAVCIS,ioos:station:WAVCIS:CSI06:1,2009-06-08T19:00:00Z,28.8667,-90.4833,10.0,4.869,144.0,,'11111222,11111222,99999999' 
WAVCIS,ioos:station:WAVCIS:CSI06:1,2009-06-08T20:00:00Z,28.8667,-90.4833,10.0,4.248,139.0,,'11111222,11111222,99999999' 
WAVCIS,ioos:station:WAVCIS:CSI06:1,2009-06-08T21:00:00Z,28.8667,-90.4833,10.0,3.949,129.0,,'11111222,11111222,99999999' 
WAVCIS,ioos:station:WAVCIS:CSI06:1,2009-06-08T22:00:00Z,28.8667,-90.4833,10.0,3.724,132.0,,'11111222,11111222,99999999' 
WAVCIS,ioos:station:WAVCIS:CSI06:1,2009-06-08T23:00:00Z,28.8667,-90.4833,10.0,3.141,124.0,,'11111222,11111222,99999999' 
WAVCIS,ioos:station:WAVCIS:CSI06:1,2009-06-09T00:00:00Z,28.8667,-90.4833,10.0,3.713,132.0,,'11111222,11111222,99999999' 
WAVCIS,ioos:station:WAVCIS:CSI06:1,2009-06-09T01:00:00Z,28.8667,-90.4833,10.0,4.985,140.0,,'11111222,11111222,99999999' 
WAVCIS,ioos:station:WAVCIS:CSI06:1,2009-06-09T02:00:00Z,28.8667,-90.4833,10.0,6.537,159.0,,'11111222,11111222,99999999' 
WAVCIS,ioos:station:WAVCIS:CSI06:1,2009-06-09T03:00:00Z,28.8667,-90.4833,10.0,7.52,156.0,,'11111222,11111222,99999999' 
WAVCIS,ioos:station:WAVCIS:CSI06:1,2009-06-09T04:00:00Z,28.8667,-90.4833,10.0,7.21,156.0,,'11111222,11111222,99999999' 
WAVCIS,ioos:station:WAVCIS:CSI06:1,2009-06-09T05:00:00Z,28.8667,-90.4833,10.0,7.95,151.0,,'11111222,11111222,99999999' 